owner,sensor,date,latitude,longitude,vertical_datum,sea_water_practical_salinity,qcFlag 
LUMCON,ioos:station:LUMCON:wisl1:1,2019-10-01T00:00:00Z,29.1144,-90.1840,2.432,25.76,11111222 
LUMCON,ioos:station:LUMCON:wisl1:1,2019-10-01T00:15:00Z,29.1144,-90.1840,2.434,25.78,11111222 
LUMCON,ioos:station:LUMCON:wisl1:1,2019-10-01T00:30:00Z,29.1144,-90.1840,2.437,25.86,11111222 
LUMCON,ioos:station:LUMCON:wisl1:1,2019-10-01T00:45:00Z,29.1144,-90.1840,2.441,25.95,11111222 
LUMCON,ioos:station:LUMCON:wisl1:1,2019-10-01T01:00:00Z,29.1144,-90.1840,2.445,25.99,11111222 
LUMCON,ioos:station:LUMCON:wisl1:1,2019-10-01T01:15:00Z,29.1144,-90.1840,2.454,26.13,11111222 
LUMCON,ioos:station:LUMCON:wisl1:1,2019-10-01T01:30:00Z,29.1144,-90.1840,2.46,26.13,11111222 
LUMCON,ioos:station:LUMCON:wisl1:1,2019-10-01T01:45:00Z,29.1144,-90.1840,2.465,26.23,11111222 
LUMCON,ioos:station:LUMCON:wisl1:1,2019-10-01T02:00:00Z,29.1144,-90.1840,2.466,26.19,11111222 
LUMCON,ioos:station:LUMCON:wisl1:1,2019-10-01T02:15:00Z,29.1144,-90.1840,2.473,26.29,11111222 
LUMCON,ioos:station:LUMCON:wisl1:1,2019-10-01T02:30:00Z,29.1144,-90.1840,2.475,26.26,11111222 
LUMCON,ioos:station:LUMCON:wisl1:1,2019-10-01T02:45:00Z,29.1144,-90.1840,2.482,26.4,11111222 
LUMCON,ioos:station:LUMCON:wisl1:1,2019-10-01T03:00:00Z,29.1144,-90.1840,2.483,26.31,11111222 
LUMCON,ioos:station:LUMCON:wisl1:1,2019-10-01T03:15:00Z,29.1144,-90.1840,2.481,26.48,11111222 
LUMCON,ioos:station:LUMCON:wisl1:1,2019-10-01T03:30:00Z,29.1144,-90.1840,2.481,26.6,11111222 
LUMCON,ioos:station:LUMCON:wisl1:1,2019-10-01T03:45:00Z,29.1144,-90.1840,2.482,26.49,11111222 
LUMCON,ioos:station:LUMCON:wisl1:1,2019-10-01T04:00:00Z,29.1144,-90.1840,2.48,26.49,11111222 
LUMCON,ioos:station:LUMCON:wisl1:1,2019-10-01T04:15:00Z,29.1144,-90.1840,2.48,26.55,11111222 
LUMCON,ioos:station:LUMCON:wisl1:1,2019-10-01T04:30:00Z,29.1144,-90.1840,2.486,26.75,11111222 
LUMCON,ioos:station:LUMCON:wisl1:1,2019-10-01T04:45:00Z,29.1144,-90.1840,2.489,26.6,11111222 
LUMCON,ioos:station:LUMCON:wisl1:1,2019-10-01T05:00:00Z,29.1144,-90.1840,2.493,26.39,11111222 
LUMCON,ioos:station:LUMCON:wisl1:1,2019-10-01T05:15:00Z,29.1144,-90.1840,2.498,26.56,11111222 
LUMCON,ioos:station:LUMCON:wisl1:1,2019-10-01T05:30:00Z,29.1144,-90.1840,2.499,26.54,11111222 
LUMCON,ioos:station:LUMCON:wisl1:1,2019-10-01T05:45:00Z,29.1144,-90.1840,2.503,26.5,11111222 
LUMCON,ioos:station:LUMCON:wisl1:1,2019-10-01T06:00:00Z,29.1144,-90.1840,2.508,26.52,11111222 
LUMCON,ioos:station:LUMCON:wisl1:1,2019-10-01T06:15:00Z,29.1144,-90.1840,2.51,26.54,11111222 
LUMCON,ioos:station:LUMCON:wisl1:1,2019-10-01T06:30:00Z,29.1144,-90.1840,2.513,26.63,11111222 
LUMCON,ioos:station:LUMCON:wisl1:1,2019-10-01T06:45:00Z,29.1144,-90.1840,2.512,26.52,11111222 
LUMCON,ioos:station:LUMCON:wisl1:1,2019-10-01T07:00:00Z,29.1144,-90.1840,2.513,26.89,11111222 
LUMCON,ioos:station:LUMCON:wisl1:1,2019-10-01T07:15:00Z,29.1144,-90.1840,2.509,26.44,11111222 
LUMCON,ioos:station:LUMCON:wisl1:1,2019-10-01T07:30:00Z,29.1144,-90.1840,2.503,27.16,11111222 
LUMCON,ioos:station:LUMCON:wisl1:1,2019-10-01T07:45:00Z,29.1144,-90.1840,2.496,27.19,11111222 
LUMCON,ioos:station:LUMCON:wisl1:1,2019-10-01T08:00:00Z,29.1144,-90.1840,2.489,27.47,11111222 
LUMCON,ioos:station:LUMCON:wisl1:1,2019-10-01T08:15:00Z,29.1144,-90.1840,2.478,27.44,11111222 
LUMCON,ioos:station:LUMCON:wisl1:1,2019-10-01T08:30:00Z,29.1144,-90.1840,2.468,27.4,11111222 
LUMCON,ioos:station:LUMCON:wisl1:1,2019-10-01T08:45:00Z,29.1144,-90.1840,2.462,27.15,11111222 
LUMCON,ioos:station:LUMCON:wisl1:1,2019-10-01T09:00:00Z,29.1144,-90.1840,2.452,27.05,11111222 
LUMCON,ioos:station:LUMCON:wisl1:1,2019-10-01T09:15:00Z,29.1144,-90.1840,2.441,27.17,11111222 
LUMCON,ioos:station:LUMCON:wisl1:1,2019-10-01T09:30:00Z,29.1144,-90.1840,2.429,26.97,11111222 
LUMCON,ioos:station:LUMCON:wisl1:1,2019-10-01T09:45:00Z,29.1144,-90.1840,2.429,25.98,11111222 
LUMCON,ioos:station:LUMCON:wisl1:1,2019-10-01T10:00:00Z,29.1144,-90.1840,2.431,25.61,11111222 
LUMCON,ioos:station:LUMCON:wisl1:1,2019-10-01T10:15:00Z,29.1144,-90.1840,2.427,25.05,11111222 
LUMCON,ioos:station:LUMCON:wisl1:1,2019-10-01T10:30:00Z,29.1144,-90.1840,2.421,24.91,11111222 
LUMCON,ioos:station:LUMCON:wisl1:1,2019-10-01T10:45:00Z,29.1144,-90.1840,2.411,24.82,11111222 
LUMCON,ioos:station:LUMCON:wisl1:1,2019-10-01T11:00:00Z,29.1144,-90.1840,2.404,24.93,11111222 
LUMCON,ioos:station:LUMCON:wisl1:1,2019-10-01T11:15:00Z,29.1144,-90.1840,2.39,24.88,11111222 
LUMCON,ioos:station:LUMCON:wisl1:1,2019-10-01T11:30:00Z,29.1144,-90.1840,2.386,24.56,11111222 
LUMCON,ioos:station:LUMCON:wisl1:1,2019-10-01T11:45:00Z,29.1144,-90.1840,2.384,24.56,11111222 
LUMCON,ioos:station:LUMCON:wisl1:1,2019-10-01T12:00:00Z,29.1144,-90.1840,2.377,24.34,11111222 
LUMCON,ioos:station:LUMCON:wisl1:1,2019-10-01T12:15:00Z,29.1144,-90.1840,2.368,24.22,11111222 
LUMCON,ioos:station:LUMCON:wisl1:1,2019-10-01T12:30:00Z,29.1144,-90.1840,2.363,24.18,11111222 
LUMCON,ioos:station:LUMCON:wisl1:1,2019-10-01T12:45:00Z,29.1144,-90.1840,2.358,24.1,11111222 
LUMCON,ioos:station:LUMCON:wisl1:1,2019-10-01T13:00:00Z,29.1144,-90.1840,2.347,23.95,11111222 
LUMCON,ioos:station:LUMCON:wisl1:1,2019-10-01T13:15:00Z,29.1144,-90.1840,2.343,23.94,11111222 
LUMCON,ioos:station:LUMCON:wisl1:1,2019-10-01T13:30:00Z,29.1144,-90.1840,2.337,23.83,11111222 
LUMCON,ioos:station:LUMCON:wisl1:1,2019-10-01T13:45:00Z,29.1144,-90.1840,2.331,23.76,11111222 
LUMCON,ioos:station:LUMCON:wisl1:1,2019-10-01T14:00:00Z,29.1144,-90.1840,2.326,23.69,11111222 
LUMCON,ioos:station:LUMCON:wisl1:1,2019-10-01T14:15:00Z,29.1144,-90.1840,2.323,23.67,11111222 
LUMCON,ioos:station:LUMCON:wisl1:1,2019-10-01T14:30:00Z,29.1144,-90.1840,2.328,23.37,11111222 
LUMCON,ioos:station:LUMCON:wisl1:1,2019-10-01T14:45:00Z,29.1144,-90.1840,2.31,23.18,11111222 
LUMCON,ioos:station:LUMCON:wisl1:1,2019-10-01T15:00:00Z,29.1144,-90.1840,2.319,23.12,11111222 
LUMCON,ioos:station:LUMCON:wisl1:1,2019-10-01T15:15:00Z,29.1144,-90.1840,2.309,23.05,11111222 
LUMCON,ioos:station:LUMCON:wisl1:1,2019-10-01T15:30:00Z,29.1144,-90.1840,2.304,22.9,11111222 
LUMCON,ioos:station:LUMCON:wisl1:1,2019-10-01T15:45:00Z,29.1144,-90.1840,2.301,22.83,11111222 
LUMCON,ioos:station:LUMCON:wisl1:1,2019-10-01T16:00:00Z,29.1144,-90.1840,2.295,22.77,11111222 
LUMCON,ioos:station:LUMCON:wisl1:1,2019-10-01T16:15:00Z,29.1144,-90.1840,2.286,22.72,11111222 
LUMCON,ioos:station:LUMCON:wisl1:1,2019-10-01T16:30:00Z,29.1144,-90.1840,2.288,22.79,11111222 
LUMCON,ioos:station:LUMCON:wisl1:1,2019-10-01T16:45:00Z,29.1144,-90.1840,2.28,22.7,11111222 
LUMCON,ioos:station:LUMCON:wisl1:1,2019-10-01T17:00:00Z,29.1144,-90.1840,2.274,22.86,11111222 
LUMCON,ioos:station:LUMCON:wisl1:1,2019-10-01T17:15:00Z,29.1144,-90.1840,2.273,22.74,11111222 
LUMCON,ioos:station:LUMCON:wisl1:1,2019-10-01T17:30:00Z,29.1144,-90.1840,2.275,22.79,11111222 
LUMCON,ioos:station:LUMCON:wisl1:1,2019-10-01T17:45:00Z,29.1144,-90.1840,2.274,22.74,11111222 
LUMCON,ioos:station:LUMCON:wisl1:1,2019-10-01T18:00:00Z,29.1144,-90.1840,2.28,22.74,11111222 
LUMCON,ioos:station:LUMCON:wisl1:1,2019-10-01T18:15:00Z,29.1144,-90.1840,2.284,22.63,11111222 
LUMCON,ioos:station:LUMCON:wisl1:1,2019-10-01T18:30:00Z,29.1144,-90.1840,2.288,22.81,11111222 
LUMCON,ioos:station:LUMCON:wisl1:1,2019-10-01T18:45:00Z,29.1144,-90.1840,2.293,22.7,11111222 
LUMCON,ioos:station:LUMCON:wisl1:1,2019-10-01T19:00:00Z,29.1144,-90.1840,2.297,22.76,11111222 
LUMCON,ioos:station:LUMCON:wisl1:1,2019-10-01T19:15:00Z,29.1144,-90.1840,2.295,22.62,11111222 
LUMCON,ioos:station:LUMCON:wisl1:1,2019-10-01T19:30:00Z,29.1144,-90.1840,2.296,22.61,11111222 
LUMCON,ioos:station:LUMCON:wisl1:1,2019-10-01T19:45:00Z,29.1144,-90.1840,2.29,22.64,11111222 
LUMCON,ioos:station:LUMCON:wisl1:1,2019-10-01T20:00:00Z,29.1144,-90.1840,2.293,22.77,11111222 
LUMCON,ioos:station:LUMCON:wisl1:1,2019-10-01T20:15:00Z,29.1144,-90.1840,2.299,23.0,11111222 
LUMCON,ioos:station:LUMCON:wisl1:1,2019-10-01T20:30:00Z,29.1144,-90.1840,2.316,23.22,11111222 
LUMCON,ioos:station:LUMCON:wisl1:1,2019-10-01T20:45:00Z,29.1144,-90.1840,2.324,23.23,11111222 
LUMCON,ioos:station:LUMCON:wisl1:1,2019-10-01T21:00:00Z,29.1144,-90.1840,2.339,23.24,11111222 
LUMCON,ioos:station:LUMCON:wisl1:1,2019-10-01T21:15:00Z,29.1144,-90.1840,2.35,23.47,11111222 
LUMCON,ioos:station:LUMCON:wisl1:1,2019-10-01T21:30:00Z,29.1144,-90.1840,2.362,23.68,11111222 
LUMCON,ioos:station:LUMCON:wisl1:1,2019-10-01T21:45:00Z,29.1144,-90.1840,2.371,23.91,11111222 
LUMCON,ioos:station:LUMCON:wisl1:1,2019-10-01T22:00:00Z,29.1144,-90.1840,2.382,24.17,11111222 
LUMCON,ioos:station:LUMCON:wisl1:1,2019-10-01T22:15:00Z,29.1144,-90.1840,2.39,24.67,11111222 
LUMCON,ioos:station:LUMCON:wisl1:1,2019-10-01T22:30:00Z,29.1144,-90.1840,2.397,25.21,11111222 
LUMCON,ioos:station:LUMCON:wisl1:1,2019-10-01T22:45:00Z,29.1144,-90.1840,2.402,25.52,11111222 
LUMCON,ioos:station:LUMCON:wisl1:1,2019-10-01T23:00:00Z,29.1144,-90.1840,2.405,25.68,11111222 
LUMCON,ioos:station:LUMCON:wisl1:1,2019-10-01T23:15:00Z,29.1144,-90.1840,2.411,25.94,11111222 
LUMCON,ioos:station:LUMCON:wisl1:1,2019-10-01T23:30:00Z,29.1144,-90.1840,2.417,26.12,11111222 
LUMCON,ioos:station:LUMCON:wisl1:1,2019-10-01T23:45:00Z,29.1144,-90.1840,2.426,26.21,11111222 
LUMCON,ioos:station:LUMCON:wisl1:1,2019-10-02T00:00:00Z,29.1144,-90.1840,2.435,26.29,11111222 
LUMCON,ioos:station:LUMCON:wisl1:1,2019-10-02T00:15:00Z,29.1144,-90.1840,2.437,26.34,11111222 
LUMCON,ioos:station:LUMCON:wisl1:1,2019-10-02T00:30:00Z,29.1144,-90.1840,2.445,26.36,11111222 
LUMCON,ioos:station:LUMCON:wisl1:1,2019-10-02T00:45:00Z,29.1144,-90.1840,2.455,26.41,11111222 
LUMCON,ioos:station:LUMCON:wisl1:1,2019-10-02T01:00:00Z,29.1144,-90.1840,2.464,26.3,11111222 
LUMCON,ioos:station:LUMCON:wisl1:1,2019-10-02T01:15:00Z,29.1144,-90.1840,2.471,26.5,11111222 
LUMCON,ioos:station:LUMCON:wisl1:1,2019-10-02T01:30:00Z,29.1144,-90.1840,2.479,26.5,11111222 
LUMCON,ioos:station:LUMCON:wisl1:1,2019-10-02T01:45:00Z,29.1144,-90.1840,2.488,26.53,11111222 
LUMCON,ioos:station:LUMCON:wisl1:1,2019-10-02T02:00:00Z,29.1144,-90.1840,2.499,26.54,11111222 
LUMCON,ioos:station:LUMCON:wisl1:1,2019-10-02T02:15:00Z,29.1144,-90.1840,2.506,26.57,11111222 
LUMCON,ioos:station:LUMCON:wisl1:1,2019-10-02T02:30:00Z,29.1144,-90.1840,2.519,26.45,11111222 
LUMCON,ioos:station:LUMCON:wisl1:1,2019-10-02T02:45:00Z,29.1144,-90.1840,2.527,26.54,11111222 
LUMCON,ioos:station:LUMCON:wisl1:1,2019-10-02T03:00:00Z,29.1144,-90.1840,2.537,26.53,11111222 
LUMCON,ioos:station:LUMCON:wisl1:1,2019-10-02T03:15:00Z,29.1144,-90.1840,2.548,26.5,11111222 
LUMCON,ioos:station:LUMCON:wisl1:1,2019-10-02T03:30:00Z,29.1144,-90.1840,2.554,26.53,11111222 
LUMCON,ioos:station:LUMCON:wisl1:1,2019-10-02T03:45:00Z,29.1144,-90.1840,2.56,26.54,11111222 
LUMCON,ioos:station:LUMCON:wisl1:1,2019-10-02T04:00:00Z,29.1144,-90.1840,2.562,26.11,11111222 
LUMCON,ioos:station:LUMCON:wisl1:1,2019-10-02T04:15:00Z,29.1144,-90.1840,2.565,26.52,11111222 
LUMCON,ioos:station:LUMCON:wisl1:1,2019-10-02T04:30:00Z,29.1144,-90.1840,2.568,26.52,11111222 
LUMCON,ioos:station:LUMCON:wisl1:1,2019-10-02T04:45:00Z,29.1144,-90.1840,2.577,26.47,11111222 
LUMCON,ioos:station:LUMCON:wisl1:1,2019-10-02T05:00:00Z,29.1144,-90.1840,2.577,26.46,11111222 
LUMCON,ioos:station:LUMCON:wisl1:1,2019-10-02T05:15:00Z,29.1144,-90.1840,2.577,26.48,11111222 
LUMCON,ioos:station:LUMCON:wisl1:1,2019-10-02T05:30:00Z,29.1144,-90.1840,2.579,26.49,11111222 
LUMCON,ioos:station:LUMCON:wisl1:1,2019-10-02T05:45:00Z,29.1144,-90.1840,2.58,26.49,11111222 
LUMCON,ioos:station:LUMCON:wisl1:1,2019-10-02T06:00:00Z,29.1144,-90.1840,2.58,26.47,11111222 
LUMCON,ioos:station:LUMCON:wisl1:1,2019-10-02T06:15:00Z,29.1144,-90.1840,2.578,26.4,11111222 
LUMCON,ioos:station:LUMCON:wisl1:1,2019-10-02T06:30:00Z,29.1144,-90.1840,2.577,26.39,11111222 
LUMCON,ioos:station:LUMCON:wisl1:1,2019-10-02T06:45:00Z,29.1144,-90.1840,2.577,26.47,11111222 
LUMCON,ioos:station:LUMCON:wisl1:1,2019-10-02T07:00:00Z,29.1144,-90.1840,2.575,26.44,11111222 
LUMCON,ioos:station:LUMCON:wisl1:1,2019-10-02T07:15:00Z,29.1144,-90.1840,2.571,26.45,11111222 
LUMCON,ioos:station:LUMCON:wisl1:1,2019-10-02T07:30:00Z,29.1144,-90.1840,2.568,26.48,11111222 
LUMCON,ioos:station:LUMCON:wisl1:1,2019-10-02T07:45:00Z,29.1144,-90.1840,2.564,26.49,11111222 
LUMCON,ioos:station:LUMCON:wisl1:1,2019-10-02T08:00:00Z,29.1144,-90.1840,2.553,26.48,11111222 
LUMCON,ioos:station:LUMCON:wisl1:1,2019-10-02T08:15:00Z,29.1144,-90.1840,2.548,26.49,11111222 
LUMCON,ioos:station:LUMCON:wisl1:1,2019-10-02T08:30:00Z,29.1144,-90.1840,2.542,26.51,11111222 
LUMCON,ioos:station:LUMCON:wisl1:1,2019-10-02T08:45:00Z,29.1144,-90.1840,2.533,26.5,11111222 
LUMCON,ioos:station:LUMCON:wisl1:1,2019-10-02T09:00:00Z,29.1144,-90.1840,2.527,26.47,11111222 
LUMCON,ioos:station:LUMCON:wisl1:1,2019-10-02T09:15:00Z,29.1144,-90.1840,2.526,26.43,11111222 
LUMCON,ioos:station:LUMCON:wisl1:1,2019-10-02T09:30:00Z,29.1144,-90.1840,2.518,26.41,11111222 
LUMCON,ioos:station:LUMCON:wisl1:1,2019-10-02T09:45:00Z,29.1144,-90.1840,2.507,26.37,11111222 
LUMCON,ioos:station:LUMCON:wisl1:1,2019-10-02T10:00:00Z,29.1144,-90.1840,2.501,26.28,11111222 
LUMCON,ioos:station:LUMCON:wisl1:1,2019-10-02T10:15:00Z,29.1144,-90.1840,2.496,26.27,11111222 
LUMCON,ioos:station:LUMCON:wisl1:1,2019-10-02T10:30:00Z,29.1144,-90.1840,2.485,26.23,11111222 
LUMCON,ioos:station:LUMCON:wisl1:1,2019-10-02T10:45:00Z,29.1144,-90.1840,2.474,25.98,11111222 
LUMCON,ioos:station:LUMCON:wisl1:1,2019-10-02T11:00:00Z,29.1144,-90.1840,2.463,25.88,11111222 
LUMCON,ioos:station:LUMCON:wisl1:1,2019-10-02T11:15:00Z,29.1144,-90.1840,2.45,25.88,11111222 
LUMCON,ioos:station:LUMCON:wisl1:1,2019-10-02T11:30:00Z,29.1144,-90.1840,2.44,25.77,11111222 
LUMCON,ioos:station:LUMCON:wisl1:1,2019-10-02T11:45:00Z,29.1144,-90.1840,2.428,25.63,11111222 
LUMCON,ioos:station:LUMCON:wisl1:1,2019-10-02T12:00:00Z,29.1144,-90.1840,2.415,25.41,11111222 
LUMCON,ioos:station:LUMCON:wisl1:1,2019-10-02T12:15:00Z,29.1144,-90.1840,2.406,25.27,11111222 
LUMCON,ioos:station:LUMCON:wisl1:1,2019-10-02T12:30:00Z,29.1144,-90.1840,2.391,25.21,11111222 
LUMCON,ioos:station:LUMCON:wisl1:1,2019-10-02T12:45:00Z,29.1144,-90.1840,2.377,25.25,11111222 
LUMCON,ioos:station:LUMCON:wisl1:1,2019-10-02T13:00:00Z,29.1144,-90.1840,2.369,25.08,11111222 
LUMCON,ioos:station:LUMCON:wisl1:1,2019-10-02T13:15:00Z,29.1144,-90.1840,2.358,24.99,11111222 
LUMCON,ioos:station:LUMCON:wisl1:1,2019-10-02T13:30:00Z,29.1144,-90.1840,2.348,24.83,11111222 
LUMCON,ioos:station:LUMCON:wisl1:1,2019-10-02T13:45:00Z,29.1144,-90.1840,2.335,24.82,11111222 
LUMCON,ioos:station:LUMCON:wisl1:1,2019-10-02T14:00:00Z,29.1144,-90.1840,2.323,24.74,11111222 
LUMCON,ioos:station:LUMCON:wisl1:1,2019-10-02T14:15:00Z,29.1144,-90.1840,2.315,24.67,11111222 
LUMCON,ioos:station:LUMCON:wisl1:1,2019-10-02T14:30:00Z,29.1144,-90.1840,2.307,24.54,11111222 
LUMCON,ioos:station:LUMCON:wisl1:1,2019-10-02T14:45:00Z,29.1144,-90.1840,2.297,24.5,11111222 
LUMCON,ioos:station:LUMCON:wisl1:1,2019-10-02T15:00:00Z,29.1144,-90.1840,2.287,24.39,11111222 
LUMCON,ioos:station:LUMCON:wisl1:1,2019-10-02T15:15:00Z,29.1144,-90.1840,2.275,24.34,11111222 
LUMCON,ioos:station:LUMCON:wisl1:1,2019-10-02T15:30:00Z,29.1144,-90.1840,2.263,24.23,11111222 
LUMCON,ioos:station:LUMCON:wisl1:1,2019-10-02T15:45:00Z,29.1144,-90.1840,2.246,24.15,11111222 
LUMCON,ioos:station:LUMCON:wisl1:1,2019-10-02T16:00:00Z,29.1144,-90.1840,2.239,24.05,11111222 
LUMCON,ioos:station:LUMCON:wisl1:1,2019-10-02T16:15:00Z,29.1144,-90.1840,2.222,23.96,11111222 
LUMCON,ioos:station:LUMCON:wisl1:1,2019-10-02T16:30:00Z,29.1144,-90.1840,2.215,23.92,11111222 
LUMCON,ioos:station:LUMCON:wisl1:1,2019-10-02T16:45:00Z,29.1144,-90.1840,2.208,23.84,11111222 
LUMCON,ioos:station:LUMCON:wisl1:1,2019-10-02T17:00:00Z,29.1144,-90.1840,2.2,23.81,11111222 
LUMCON,ioos:station:LUMCON:wisl1:1,2019-10-02T17:15:00Z,29.1144,-90.1840,2.186,23.73,11111222 
LUMCON,ioos:station:LUMCON:wisl1:1,2019-10-02T17:30:00Z,29.1144,-90.1840,2.173,23.65,11111222 
LUMCON,ioos:station:LUMCON:wisl1:1,2019-10-02T17:45:00Z,29.1144,-90.1840,2.17,23.6,11111222 
LUMCON,ioos:station:LUMCON:wisl1:1,2019-10-02T18:00:00Z,29.1144,-90.1840,2.166,23.57,11111222 
LUMCON,ioos:station:LUMCON:wisl1:1,2019-10-02T18:15:00Z,29.1144,-90.1840,2.153,23.5,11111222 
LUMCON,ioos:station:LUMCON:wisl1:1,2019-10-02T18:30:00Z,29.1144,-90.1840,2.144,23.48,11111222 
LUMCON,ioos:station:LUMCON:wisl1:1,2019-10-02T18:45:00Z,29.1144,-90.1840,2.139,23.52,11111222 
LUMCON,ioos:station:LUMCON:wisl1:1,2019-10-02T19:00:00Z,29.1144,-90.1840,2.145,23.36,11111222 
LUMCON,ioos:station:LUMCON:wisl1:1,2019-10-02T19:15:00Z,29.1144,-90.1840,2.148,23.37,11111222 
LUMCON,ioos:station:LUMCON:wisl1:1,2019-10-02T19:30:00Z,29.1144,-90.1840,2.145,23.18,11111222 
LUMCON,ioos:station:LUMCON:wisl1:1,2019-10-02T19:45:00Z,29.1144,-90.1840,2.157,23.2,11111222 
LUMCON,ioos:station:LUMCON:wisl1:1,2019-10-02T20:00:00Z,29.1144,-90.1840,2.159,23.21,11111222 
LUMCON,ioos:station:LUMCON:wisl1:1,2019-10-02T20:15:00Z,29.1144,-90.1840,2.169,23.21,11111222 
LUMCON,ioos:station:LUMCON:wisl1:1,2019-10-02T20:30:00Z,29.1144,-90.1840,2.176,23.2,11111222 
LUMCON,ioos:station:LUMCON:wisl1:1,2019-10-02T20:45:00Z,29.1144,-90.1840,2.177,23.19,11111222 
LUMCON,ioos:station:LUMCON:wisl1:1,2019-10-02T21:00:00Z,29.1144,-90.1840,2.186,23.17,11111222 
LUMCON,ioos:station:LUMCON:wisl1:1,2019-10-02T21:15:00Z,29.1144,-90.1840,2.19,23.17,11111222 
LUMCON,ioos:station:LUMCON:wisl1:1,2019-10-02T21:30:00Z,29.1144,-90.1840,2.205,23.19,11111222 
LUMCON,ioos:station:LUMCON:wisl1:1,2019-10-02T21:45:00Z,29.1144,-90.1840,2.209,23.44,11111222 
LUMCON,ioos:station:LUMCON:wisl1:1,2019-10-02T22:00:00Z,29.1144,-90.1840,2.22,23.47,11111222 
LUMCON,ioos:station:LUMCON:wisl1:1,2019-10-02T22:15:00Z,29.1144,-90.1840,2.239,23.62,11111222 
LUMCON,ioos:station:LUMCON:wisl1:1,2019-10-02T22:30:00Z,29.1144,-90.1840,2.255,23.69,11111222 
LUMCON,ioos:station:LUMCON:wisl1:1,2019-10-02T22:45:00Z,29.1144,-90.1840,2.266,23.73,11111222 
LUMCON,ioos:station:LUMCON:wisl1:1,2019-10-02T23:00:00Z,29.1144,-90.1840,2.287,23.85,11111222 
LUMCON,ioos:station:LUMCON:wisl1:1,2019-10-02T23:15:00Z,29.1144,-90.1840,2.3,24.06,11111222 
LUMCON,ioos:station:LUMCON:wisl1:1,2019-10-02T23:30:00Z,29.1144,-90.1840,2.327,24.22,11111222 
LUMCON,ioos:station:LUMCON:wisl1:1,2019-10-02T23:45:00Z,29.1144,-90.1840,2.34,24.2,11111222 
LUMCON,ioos:station:LUMCON:wisl1:1,2019-10-03T00:00:00Z,29.1144,-90.1840,2.351,24.08,11111222 
LUMCON,ioos:station:LUMCON:wisl1:1,2019-10-03T00:15:00Z,29.1144,-90.1840,2.369,23.88,11111222 
LUMCON,ioos:station:LUMCON:wisl1:1,2019-10-03T00:30:00Z,29.1144,-90.1840,2.383,23.72,11111222 
LUMCON,ioos:station:LUMCON:wisl1:1,2019-10-03T00:45:00Z,29.1144,-90.1840,2.396,23.67,11111222 
LUMCON,ioos:station:LUMCON:wisl1:1,2019-10-03T01:00:00Z,29.1144,-90.1840,2.406,23.53,11111222 
LUMCON,ioos:station:LUMCON:wisl1:1,2019-10-03T01:15:00Z,29.1144,-90.1840,2.416,23.55,11111222 
LUMCON,ioos:station:LUMCON:wisl1:1,2019-10-03T01:30:00Z,29.1144,-90.1840,2.431,23.59,11111222 
LUMCON,ioos:station:LUMCON:wisl1:1,2019-10-03T01:45:00Z,29.1144,-90.1840,2.446,23.43,11111222 
LUMCON,ioos:station:LUMCON:wisl1:1,2019-10-03T02:00:00Z,29.1144,-90.1840,2.46,23.33,11111222 
LUMCON,ioos:station:LUMCON:wisl1:1,2019-10-03T02:15:00Z,29.1144,-90.1840,2.47,23.13,11111222 
LUMCON,ioos:station:LUMCON:wisl1:1,2019-10-03T02:30:00Z,29.1144,-90.1840,2.483,23.16,11111222 
LUMCON,ioos:station:LUMCON:wisl1:1,2019-10-03T02:45:00Z,29.1144,-90.1840,2.491,23.04,11111222 
LUMCON,ioos:station:LUMCON:wisl1:1,2019-10-03T03:00:00Z,29.1144,-90.1840,2.507,23.01,11111222 
LUMCON,ioos:station:LUMCON:wisl1:1,2019-10-03T03:15:00Z,29.1144,-90.1840,2.519,23.04,11111222 
LUMCON,ioos:station:LUMCON:wisl1:1,2019-10-03T03:30:00Z,29.1144,-90.1840,2.527,23.0,11111222 
LUMCON,ioos:station:LUMCON:wisl1:1,2019-10-03T03:45:00Z,29.1144,-90.1840,2.533,23.09,11111222 
LUMCON,ioos:station:LUMCON:wisl1:1,2019-10-03T04:00:00Z,29.1144,-90.1840,2.543,23.04,11111222 
LUMCON,ioos:station:LUMCON:wisl1:1,2019-10-03T04:15:00Z,29.1144,-90.1840,2.552,23.2,11111222 
LUMCON,ioos:station:LUMCON:wisl1:1,2019-10-03T04:30:00Z,29.1144,-90.1840,2.56,23.12,11111222 
LUMCON,ioos:station:LUMCON:wisl1:1,2019-10-03T04:45:00Z,29.1144,-90.1840,2.569,23.26,11111222 
LUMCON,ioos:station:LUMCON:wisl1:1,2019-10-03T05:00:00Z,29.1144,-90.1840,2.575,23.17,11111222 
LUMCON,ioos:station:LUMCON:wisl1:1,2019-10-03T05:15:00Z,29.1144,-90.1840,2.579,23.13,11111222 
LUMCON,ioos:station:LUMCON:wisl1:1,2019-10-03T05:30:00Z,29.1144,-90.1840,2.586,23.15,11111222 
LUMCON,ioos:station:LUMCON:wisl1:1,2019-10-03T05:45:00Z,29.1144,-90.1840,2.588,23.1,11111222 
LUMCON,ioos:station:LUMCON:wisl1:1,2019-10-03T06:00:00Z,29.1144,-90.1840,2.594,23.11,11111222 
LUMCON,ioos:station:LUMCON:wisl1:1,2019-10-03T06:15:00Z,29.1144,-90.1840,2.598,23.1,11111222 
LUMCON,ioos:station:LUMCON:wisl1:1,2019-10-03T06:30:00Z,29.1144,-90.1840,2.601,23.02,11111222 
LUMCON,ioos:station:LUMCON:wisl1:1,2019-10-03T06:45:00Z,29.1144,-90.1840,2.605,23.08,11111222 
LUMCON,ioos:station:LUMCON:wisl1:1,2019-10-03T07:00:00Z,29.1144,-90.1840,2.608,23.1,11111222 
LUMCON,ioos:station:LUMCON:wisl1:1,2019-10-03T07:15:00Z,29.1144,-90.1840,2.609,23.06,11111222 
LUMCON,ioos:station:LUMCON:wisl1:1,2019-10-03T07:30:00Z,29.1144,-90.1840,2.611,23.09,11111222 
LUMCON,ioos:station:LUMCON:wisl1:1,2019-10-03T07:45:00Z,29.1144,-90.1840,2.611,23.12,11111222 
LUMCON,ioos:station:LUMCON:wisl1:1,2019-10-03T08:00:00Z,29.1144,-90.1840,2.606,23.08,11111222 
LUMCON,ioos:station:LUMCON:wisl1:1,2019-10-03T08:15:00Z,29.1144,-90.1840,2.604,23.1,11111222 
LUMCON,ioos:station:LUMCON:wisl1:1,2019-10-03T08:30:00Z,29.1144,-90.1840,2.603,23.05,11111222 
LUMCON,ioos:station:LUMCON:wisl1:1,2019-10-03T08:45:00Z,29.1144,-90.1840,2.594,23.03,11111222 
LUMCON,ioos:station:LUMCON:wisl1:1,2019-10-03T09:00:00Z,29.1144,-90.1840,2.587,22.98,11111222 
LUMCON,ioos:station:LUMCON:wisl1:1,2019-10-03T09:15:00Z,29.1144,-90.1840,2.582,22.98,11111222 
LUMCON,ioos:station:LUMCON:wisl1:1,2019-10-03T09:30:00Z,29.1144,-90.1840,2.57,23.07,11111222 
LUMCON,ioos:station:LUMCON:wisl1:1,2019-10-03T09:45:00Z,29.1144,-90.1840,2.556,23.08,11111222 
LUMCON,ioos:station:LUMCON:wisl1:1,2019-10-03T10:00:00Z,29.1144,-90.1840,2.55,23.1,11111222 
LUMCON,ioos:station:LUMCON:wisl1:1,2019-10-03T10:15:00Z,29.1144,-90.1840,2.543,23.1,11111222 
LUMCON,ioos:station:LUMCON:wisl1:1,2019-10-03T10:30:00Z,29.1144,-90.1840,2.535,23.1,11111222 
LUMCON,ioos:station:LUMCON:wisl1:1,2019-10-03T10:45:00Z,29.1144,-90.1840,2.527,23.14,11111222 
LUMCON,ioos:station:LUMCON:wisl1:1,2019-10-03T11:00:00Z,29.1144,-90.1840,2.518,23.12,11111222 
LUMCON,ioos:station:LUMCON:wisl1:1,2019-10-03T11:15:00Z,29.1144,-90.1840,2.507,23.17,11111222 
LUMCON,ioos:station:LUMCON:wisl1:1,2019-10-03T11:30:00Z,29.1144,-90.1840,2.501,23.18,11111222 
LUMCON,ioos:station:LUMCON:wisl1:1,2019-10-03T11:45:00Z,29.1144,-90.1840,2.492,23.22,11111222 
LUMCON,ioos:station:LUMCON:wisl1:1,2019-10-03T12:00:00Z,29.1144,-90.1840,2.483,23.25,11111222 
LUMCON,ioos:station:LUMCON:wisl1:1,2019-10-03T12:15:00Z,29.1144,-90.1840,2.477,23.28,11111222 
LUMCON,ioos:station:LUMCON:wisl1:1,2019-10-03T12:30:00Z,29.1144,-90.1840,2.467,23.3,11111222 
LUMCON,ioos:station:LUMCON:wisl1:1,2019-10-03T12:45:00Z,29.1144,-90.1840,2.461,23.31,11111222 
LUMCON,ioos:station:LUMCON:wisl1:1,2019-10-03T13:00:00Z,29.1144,-90.1840,2.451,23.34,11111222 
LUMCON,ioos:station:LUMCON:wisl1:1,2019-10-03T13:15:00Z,29.1144,-90.1840,2.438,23.38,11111222 
LUMCON,ioos:station:LUMCON:wisl1:1,2019-10-03T13:30:00Z,29.1144,-90.1840,2.423,23.4,11111222 
LUMCON,ioos:station:LUMCON:wisl1:1,2019-10-03T13:45:00Z,29.1144,-90.1840,2.414,23.42,11111222 
LUMCON,ioos:station:LUMCON:wisl1:1,2019-10-03T14:00:00Z,29.1144,-90.1840,2.402,23.39,11111222 
LUMCON,ioos:station:LUMCON:wisl1:1,2019-10-03T14:15:00Z,29.1144,-90.1840,2.393,23.45,11111222 
LUMCON,ioos:station:LUMCON:wisl1:1,2019-10-03T14:30:00Z,29.1144,-90.1840,2.377,23.44,11111222 
LUMCON,ioos:station:LUMCON:wisl1:1,2019-10-03T14:45:00Z,29.1144,-90.1840,2.363,23.45,11111222 